User: anonymous
Location: Unspecified
(0.0000°N, 0.0000°E)
Time: 20:03:55
(UTC+02:00)
Language:

YAOGAN 1 - Orbit

View from above orbital plane
View from above orbital plane
View from above satellite
View from above satellite

Ground track
Ground track

The orbit data is extracted from the following two-line orbital elements,

1 29092U 06015A   14238.08419429  .00000300  00000-0  44713-4 0  1368
2 29092 097.9838 233.3729 0001436 106.4361 293.6508 14.81869862450344
Epoch (UTC): 26 August 2014 02:01:14
Eccentricity: 0.0001436
inclination: 97.9838°
perigee height: 622 km
apogee height: 624 km
right ascension of ascending node: 233.3729°
argument of perigee: 106.4361°
revolutions per day: 14.81869862
mean anomaly at epoch: 293.6508°
orbit number at epoch: 45034

The dashed part of the orbit path shows where the satellite is in the earth's shadow,  

DLR